Flag for Turkey Weather past 2 weeks in Istanbul, Turkey

Now
73 °F

Clear.


Feels Like: 76 °F
Forecast: 72 / 85 °F
Wind: 7 mph from Northeast

Location: Istanbul Ataturk Airport

Current Time: Aug 29, 2015 at 3:48:46 AM

Latest Report: Aug 29, 2015 at 3:20 AM


Visibility: 10 mi

Pressure: 30.12 "Hg

Humidity: 69%

Dew point: 63 °F

Location of IstanbulLocation

Historic Weather in Istanbul — Graph

°F

Istanbul temperature yesterday

Maximum temperature yesterday: 86 °F (at 1:50 PM)
Minimum temperature yesterday: 72 °F (at 3:50 AM)
Average temperature yesterday: 79 °F

Past Weeks' High & Low Weather Summary

 TemperatureHumidityPressure
High93 °F (Aug 14, 4:20 PM)89% (Aug 14, 5:20 AM)30.12 "Hg (Aug 14, 5:20 AM)
Low68 °F (Aug 24, 3:50 AM)24% (Aug 25, 4:50 PM)29.71 "Hg (Aug 17, 6:20 PM)
Average80 °F58%29.93 "Hg
* Reported Aug 14 2:20 AM — Aug 29 2:20 AM, Istanbul, Weather by CustomWeather, © 2015

Note: Actual official high and low records may vary slightly from our data, if they occured in-between our weather recording intervals... More about our weather records

Advertising

Istanbul weather history for previous 24 hours

 ConditionsComfort  
Time TempWeatherWind HumidityBarometerVisibility
2:20 AM
Sat, Aug 29
75 °FClear.7 mph65%30.12 "Hg10 mi
1:50 AM77 °FClear.8 mph61%30.12 "Hg10 mi
12:50 AM75 °FPassing clouds.8 mph65%30.12 "HgN/A
12:20 AM75 °FPassing clouds.8 mph65%30.12 "HgN/A
11:50 PM
Fri, Aug 28
75 °FPassing clouds.9 mph61%30.12 "HgN/A
11:20 PM75 °FPassing clouds.10 mph61%30.12 "HgN/A
10:50 PM75 °FPassing clouds.9 mph61%30.12 "HgN/A
10:20 PM77 °FPassing clouds.9 mph61%30.12 "HgN/A
9:50 PM77 °FClear.9 mph57%30.12 "Hg10 mi
9:20 PM77 °FPassing clouds.12 mph57%30.12 "HgN/A
8:50 PM77 °FClear.13 mph57%30.12 "Hg10 mi
8:20 PM79 °FPassing clouds.14 mph54%30.12 "HgN/A
7:50 PM81 °FSunny.14 mph48%30.09 "Hg10 mi
7:20 PM79 °FSunny.15 mph45%30.09 "Hg10 mi
6:50 PM82 °FSunny.10 mph40%30.09 "Hg10 mi
6:20 PM81 °FPassing clouds.16 mph45%30.09 "HgN/A
5:50 PM82 °FPassing clouds.15 mph42%30.09 "HgN/A
5:20 PM82 °FSunny.20 mph42%30.09 "Hg10 mi
4:50 PM82 °FPassing clouds.20 mph37%30.09 "HgN/A
4:20 PM84 °FSunny.20 mph33%30.09 "Hg10 mi
3:50 PM84 °FPassing clouds.17 mph35%30.09 "HgN/A
3:20 PM84 °FPassing clouds.17 mph37%30.09 "HgN/A
2:50 PM86 °FPassing clouds.15 mph35%30.12 "HgN/A
2:20 PM86 °FPassing clouds.15 mph33%30.12 "HgN/A
1:50 PM86 °FPassing clouds.16 mph35%30.12 "HgN/A
1:20 PM84 °FPassing clouds.15 mph40%30.12 "HgN/A
12:50 PM84 °FPassing clouds.17 mph43%30.12 "HgN/A
12:20 PM84 °FPassing clouds.14 mph43%30.12 "HgN/A
11:50 AM82 °FPassing clouds.14 mph45%30.12 "HgN/A
11:20 AM82 °FPassing clouds.13 mph48%30.12 "HgN/A
10:50 AM81 °FPassing clouds.10 mph48%30.12 "HgN/A
10:20 AM81 °FPassing clouds.10 mph51%30.12 "HgN/A
9:50 AM81 °FPassing clouds.10 mph51%30.12 "HgN/A
9:20 AM79 °FPassing clouds.9 mph58%30.12 "HgN/A
8:50 AM77 °FPassing clouds.9 mph61%30.12 "HgN/A
8:20 AM75 °FSunny.6 mph65%30.09 "Hg10 mi
7:50 AM73 °FPassing clouds.5 mph69%30.09 "HgN/A
6:50 AM72 °FPassing clouds.6 mph73%30.09 "HgN/A
5:50 AM72 °FPassing clouds.7 mph73%30.09 "HgN/A
5:20 AM72 °FPassing clouds.6 mph73%30.09 "HgN/A
4:50 AM72 °FPassing clouds.8 mph69%30.07 "HgN/A
3:50 AM72 °FClear.7 mph69%30.09 "Hg10 mi
3:20 AM73 °FClear.7 mph65%30.09 "Hg10 mi
Weather by CustomWeather, © 2015

See weather overviewHow to use our weather pages